Terminal Aerodrome Forecast
Issued by NWS Quad Cities IA IL

Home | Current Version | Previous Version | Text Only | Print | Product List | Glossary On
Versions: 1 2 3 4 5 6 7 8 9 10 11 12 13 14 15 16 17 18 19 20 21 22 23 24
000
FTUS43 KDVN 032100 AAD
TAFMLI
TAF AMD
KMLI 032159Z 0322/0418 30015G20KT P6SM OVC020
     FM040300 31015G20KT P6SM OVC030
     FM040800 31013G18KT P6SM SCT020 BKN070
     FM041600 31013KT P6SM SCT070=

USA.gov is the U.S. government's official web portal to all federal, state and local government web resources and services.